• In Lithuania
  • List of Countries
  • For 7 days
  • Water Temperature
  • Satellite Maps
  • Weather Map
  • Weather Widgets
  • user-avatar
    Login

    Hourly Weather Dum Duma

    Today, 21 January, Sunday

    Time Temperature Precipitation Wind Pressure Humidity
    00:00 +18°C° 0 mm 1 mps 749 mmHg 69%
    01:00 +18°C° 0 mm 1 mps 749 mmHg 69%
    02:00 +16°C° 0 mm 1 mps 749 mmHg 70%
    03:00 +16°C° 0 mm 1 mps 749 mmHg 71%
    04:00 +16°C° 0 mm 1 mps 749 mmHg 72%
    05:00 +15°C° 0 mm 1 mps 749 mmHg 72%
    06:00 +14°C° 0 mm 0 mps 749 mmHg 73%
    07:00 +16°C° 0 mm 0 mps 749 mmHg 67%
    08:00 +18°C° 0 mm 0 mps 750 mmHg 60%
    09:00 +20°C° 0 mm 0 mps 750 mmHg 54%
    10:00 +22°C° 0 mm 0 mps 749 mmHg 51%
    11:00 +26°C° 0 mm 1 mps 748 mmHg 47%
    12:00 +27°C° 0 mm 1 mps 748 mmHg 44%
    13:00 +27°C° 0 mm 1 mps 747 mmHg 45%
    14:00 +27°C° 0 mm 1 mps 747 mmHg 46%
    15:00 +27°C° 0 mm 1 mps 747 mmHg 46%
    16:00 +25°C° 0 mm 1 mps 747 mmHg 54%
    17:00 +23°C° 0 mm 1 mps 748 mmHg 61%
    18:00 +19°C° 0 mm 0 mps 748 mmHg 69%
    19:00 +20°C° 0 mm 1 mps 749 mmHg 70%
    20:00 +20°C° 0 mm 1 mps 749 mmHg 72%
    21:00 +19°C° 0 mm 1 mps 750 mmHg 73%
    22:00 +19°C° 0 mm 1 mps 750 mmHg 74%
    23:00 +18°C° 0 mm 1 mps 750 mmHg 75%

    Tomorrow, 22 January, Monday

    Time Temperature Precipitation Wind Pressure Humidity
    00:00 +18°C° 0 mm 1 mps 750 mmHg 75%
    01:00 +16°C° 0 mm 1 mps 749 mmHg 76%
    02:00 +16°C° 0 mm 1 mps 749 mmHg 76%
    03:00 +16°C° 0 mm 1 mps 749 mmHg 76%
    04:00 +15°C° 0 mm 1 mps 749 mmHg 75%
    05:00 +15°C° 0 mm 1 mps 749 mmHg 75%
    06:00 +15°C° 0 mm 1 mps 749 mmHg 75%
    07:00 +18°C° 0 mm 1 mps 749 mmHg 67%
    08:00 +18°C° 0 mm 0 mps 749 mmHg 59%
    09:00 +21°C° 0 mm 0 mps 749 mmHg 51%
    10:00 +24°C° 0 mm 1 mps 749 mmHg 48%
    11:00 +26°C° 0 mm 1 mps 748 mmHg 44%
    12:00 +28°C° 0 mm 1 mps 748 mmHg 40%
    13:00 +28°C° 0 mm 1 mps 747 mmHg 40%
    14:00 +28°C° 0 mm 1 mps 747 mmHg 40%
    15:00 +28°C° 0 mm 1 mps 746 mmHg 40%
    16:00 +26°C° 0 mm 1 mps 747 mmHg 46%
    17:00 +22°C° 0 mm 0 mps 747 mmHg 53%
    18:00 +19°C° 0 mm 0 mps 748 mmHg 59%
    19:00 +21°C° 0 mm 1 mps 748 mmHg 61%
    20:00 +20°C° 0 mm 1 mps 749 mmHg 62%
    21:00 +19°C° 0 mm 1 mps 749 mmHg 64%
    22:00 +19°C° 0 mm 1 mps 749 mmHg 65%
    23:00 +18°C° 0 mm 1 mps 749 mmHg 66%

    Day after tomorrow, 23 January, Tuesday

    Time Temperature Precipitation Wind Pressure Humidity
    00:00 +18°C° 0 mm 1 mps 748 mmHg 67%
    01:00 +18°C° 0 mm 1 mps 748 mmHg 68%
    02:00 +16°C° 0 mm 1 mps 748 mmHg 68%
    03:00 +16°C° 0 mm 1 mps 748 mmHg 69%
    04:00 +16°C° 0 mm 1 mps 748 mmHg 69%
    05:00 +15°C° 0 mm 1 mps 748 mmHg 69%
    06:00 +15°C° 0 mm 1 mps 748 mmHg 69%
    07:00 +18°C° 0 mm 1 mps 749 mmHg 62%
    08:00 +19°C° 0 mm 0 mps 749 mmHg 55%
    09:00 +21°C° 0 mm 0 mps 749 mmHg 48%
    10:00 +23°C° 0 mm 0 mps 749 mmHg 44%
    11:00 +27°C° 0 mm 1 mps 748 mmHg 41%
    12:00 +28°C° 0 mm 1 mps 747 mmHg 37%
    13:00 +28°C° 0 mm 1 mps 747 mmHg 37%
    14:00 +28°C° 0 mm 1 mps 746 mmHg 37%
    15:00 +28°C° 0 mm 1 mps 746 mmHg 38%
    16:00 +26°C° 0 mm 1 mps 746 mmHg 44%
    17:00 +24°C° 0 mm 1 mps 747 mmHg 50%
    18:00 +19°C° 0 mm 0 mps 747 mmHg 56%
    19:00 +21°C° 0 mm 1 mps 748 mmHg 58%
    20:00 +20°C° 0 mm 1 mps 748 mmHg 60%
    21:00 +19°C° 0 mm 1 mps 748 mmHg 61%
    22:00 +19°C° 0 mm 1 mps 748 mmHg 63%
    23:00 +18°C° 0 mm 1 mps 748 mmHg 64%

    24 January, Wednesday

    Time Temperature Precipitation Wind Pressure Humidity
    00:00 +18°C° 0 mm 1 mps 748 mmHg 65%
    01:00 +18°C° 0 mm 1 mps 748 mmHg 66%
    02:00 +16°C° 0 mm 1 mps 747 mmHg 67%
    03:00 +16°C° 0 mm 1 mps 747 mmHg 67%
    04:00 +16°C° 0 mm 1 mps 747 mmHg 68%
    05:00 +15°C° 0 mm 1 mps 747 mmHg 68%
    06:00 +15°C° 0 mm 1 mps 747 mmHg 69%
    07:00 +16°C° 0 mm 0 mps 748 mmHg 61%
    08:00 +19°C° 0 mm 0 mps 748 mmHg 54%
    09:00 +21°C° 0 mm 0 mps 748 mmHg 47%
    10:00 +23°C° 0 mm 0 mps 748 mmHg 42%
    11:00 +27°C° 0 mm 1 mps 747 mmHg 38%
    12:00 +29°C° 0 mm 1 mps 747 mmHg 33%
    13:00 +29°C° 0 mm 1 mps 746 mmHg 33%
    14:00 +29°C° 0 mm 1 mps 745 mmHg 33%
    15:00 +29°C° 0 mm 1 mps 744 mmHg 33%
    16:00 +26°C° 0 mm 1 mps 745 mmHg 39%
    17:00 +24°C° 0 mm 1 mps 745 mmHg 45%
    18:00 +22°C° 0 mm 1 mps 746 mmHg 51%
    19:00 +21°C° 0 mm 1 mps 746 mmHg 54%
    20:00 +20°C° 0 mm 1 mps 747 mmHg 56%
    21:00 +19°C° 0 mm 1 mps 747 mmHg 59%
    22:00 +19°C° 0.1 mm 1 mps 747 mmHg 60%
    23:00 +18°C° 0.1 mm 1 mps 747 mmHg 62%

    25 January, Thursday

    Time Temperature Precipitation Wind Pressure Humidity
    00:00 +18°C° 0.1 mm 1 mps 747 mmHg 63%
    01:00 +18°C° 0.1 mm 1 mps 747 mmHg 65%
    02:00 +16°C° 0.1 mm 1 mps 747 mmHg 67%
    03:00 +16°C° 0.1 mm 1 mps 747 mmHg 69%
    04:00 +15°C° 0.2 mm 1 mps 747 mmHg 71%
    05:00 +15°C° 0.2 mm 1 mps 747 mmHg 72%
    06:00 +15°C° 0.2 mm 1 mps 747 mmHg 73%
    07:00 +18°C° 0 mm 1 mps 748 mmHg 66%
    08:00 +20°C° 0 mm 1 mps 748 mmHg 60%
    09:00 +22°C° 0 mm 1 mps 749 mmHg 53%
    10:00 +23°C° 0 mm 1 mps 748 mmHg 47%
    11:00 +25°C° 0 mm 1 mps 748 mmHg 41%
    12:00 +26°C° 0 mm 2 mps 748 mmHg 35%
    13:00 +26°C° 0 mm 1 mps 747 mmHg 36%
    14:00 +26°C° 0 mm 1 mps 747 mmHg 36%
    15:00 +26°C° 0 mm 1 mps 746 mmHg 37%
    16:00 +24°C° 0 mm 1 mps 746 mmHg 42%
    17:00 +22°C° 0 mm 1 mps 747 mmHg 46%
    18:00 +21°C° 0 mm 1 mps 747 mmHg 51%
    19:00 +20°C° 0 mm 1 mps 748 mmHg 52%
    20:00 +20°C° 0 mm 1 mps 748 mmHg 53%
    21:00 +19°C° 0 mm 1 mps 749 mmHg 54%
    22:00 +19°C° 0 mm 1 mps 749 mmHg 55%
    23:00 +18°C° 0 mm 1 mps 748 mmHg 56%

    26 January, Friday

    Time Temperature Precipitation Wind Pressure Humidity
    00:00 +18°C° 0 mm 1 mps 748 mmHg 56%
    01:00 +18°C° 0 mm 1 mps 748 mmHg 57%
    02:00 +16°C° 0 mm 1 mps 748 mmHg 57%
    03:00 +16°C° 0 mm 1 mps 748 mmHg 57%
    04:00 +16°C° 0 mm 1 mps 748 mmHg 59%
    05:00 +16°C° 0 mm 1 mps 748 mmHg 60%
    06:00 +15°C° 0 mm 1 mps 748 mmHg 61%
    07:00 +18°C° 0 mm 1 mps 748 mmHg 57%
    08:00 +20°C° 0 mm 1 mps 748 mmHg 52%
    09:00 +22°C° 0 mm 1 mps 749 mmHg 47%
    10:00 +23°C° 0 mm 1 mps 748 mmHg 43%
    11:00 +25°C° 0 mm 1 mps 748 mmHg 39%
    12:00 +26°C° 0 mm 1 mps 747 mmHg 34%
    13:00 +27°C° 0 mm 1 mps 747 mmHg 33%
    14:00 +27°C° 0 mm 1 mps 746 mmHg 33%
    15:00 +27°C° 0 mm 1 mps 746 mmHg 32%
    16:00 +25°C° 0 mm 1 mps 746 mmHg 37%
    17:00 +23°C° 0 mm 1 mps 746 mmHg 42%
    18:00 +21°C° 0 mm 1 mps 746 mmHg 47%
    19:00 +21°C° 0 mm 1 mps 747 mmHg 48%
    20:00 +20°C° 0 mm 1 mps 747 mmHg 49%
    21:00 +20°C° 0 mm 1 mps 747 mmHg 50%
    22:00 +19°C° 0.1 mm 1 mps 747 mmHg 51%
    23:00 +19°C° 0.1 mm 1 mps 747 mmHg 52%
    Show more